Theta_e
288 288 288 287 287 287 288 287 287 287 287 287 287 288 288 288 289 289 289 290 290 290 291 291 292 292 293
288 287 288 287 287 288 287 286 285 285 286 287 287 288 288 288 288 289 289 289 289 290 290 290 290 291 291
287 287 286 287 288 287 286 286 285 285 285 286 286 286 287 288 288 288 288 288 288 289 288 288 289 290 290
286 286 287 287 286 286 285 284 285 284 285 285 286 286 286 287 287 287 287 287 287 288 288 288 287 288 289
286 287 286 285 285 284 284 284 284 285 284 284 285 284 285 285 285 286 286 287 287 287 287 287 288 288 288
287 286 285 285 284 284 283 284 285 284 284 284 284 284 284 284 285 286 286 287 287 287 288 287 288 288 288
285 285 284 283 283 284 284 284 283 283 283 284 284 284 284 284 285 286 286 287 287 288 288 288 288 288 288
284 284 283 284 285 285 283 283 283 283 283 283 284 284 284 284 286 287 287 287 288 288 288 288 289 289 288
283 284 284 284 284 283 283 283 283 283 283 282 283 283 283 286 286 286 287 287 289 290 289 289 289 290 290
283 282 282 282 283 283 283 283 283 282 284 283 282 282 282 283 285 287 288 289 289 289 290 289 290 290 290
282 282 282 282 283 283 284 283 282 282 285 282 282 282 281 282 285 286 287 289 289 290 290 291 290 290 289
281 281 281 282 284 284 284 284 283 282 285 284 282 282 282 282 283 286 288 288 288 289 289 290 289 289 290
281 281 282 284 284 284 284 283 284 285 285 285 283 282 283 283 283 285 285 288 289 289 288 289 290 289 289
281 282 283 284 284 283 283 284 282 286 286 285 284 283 284 284 285 285 286 286 287 288 288 289 290 289 290
282 283 284 283 284 284 284 283 281 283 285 286 285 284 284 285 285 286 287 287 287 287 288 288 289 289 290
284 284 283 283 284 285 284 284 282 283 283 284 283 284 285 285 286 287 287 287 287 288 288 288 289 290 291
284 284 284 284 284 285 284 284 285 285 285 284 284 284 285 286 286 286 286 287 287 287 288 288 289 290 290
Wind_Speed
30 29 30 31 31 31 32 37 39 38 36 34 35 35 35 36 36 37 37 38 38 39 39 39 40 40 41
33 33 30 34 31 36 33 37 35 36 31 34 35 35 36 36 37 37 37 38 39 39 40 41 41 41 41
36 34 36 34 31 35 39 32 33 33 34 35 35 37 35 34 35 36 37 39 40 40 40 41 42 41 41
36 40 36 28 34 34 35 34 36 37 39 38 32 34 34 35 38 38 37 37 37 37 38 38 39 40 40
38 37 35 37 33 32 34 36 44 34 41 38 31 43 41 37 37 35 33 34 35 37 38 39 39 39 39
36 36 39 33 34 34 42 38 40 40 26 49 40 44 43 40 35 34 34 33 34 36 36 37 38 39 40
36 31 34 39 40 40 38 40 44 44 40 47 43 46 41 40 35 34 35 30 31 31 31 33 35 36 38
30 34 36 37 36 36 39 41 40 40 31 39 45 42 40 45 39 22 22 25 26 30 34 35 32 34 37
28 30 31 31 29 28 33 35 40 43 38 36 33 42 47 46 34 23 26 34 30 29 30 31 33 33 36
34 32 27 26 23 22 28 33 39 45 36 30 40 35 31 36 31 41 37 35 33 33 31 32 32 34 37
28 29 29 27 26 28 27 29 36 41 39 31 39 39 30 42 48 44 41 39 39 35 33 32 34 33 39
29 31 31 30 29 29 31 32 32 36 37 31 36 36 38 42 45 47 43 41 40 39 37 40 43 42 38
31 31 31 32 33 33 33 32 32 33 31 30 32 33 34 40 44 47 42 45 35 39 41 45 47 45 46
28 31 33 34 34 32 33 34 35 36 31 31 30 27 32 35 38 44 42 39 44 43 45 47 47 44 43
30 32 34 34 32 32 34 35 33 36 38 36 33 31 31 33 36 39 37 39 41 44 44 46 48 43 40
30 32 33 32 34 34 34 33 33 36 36 38 38 39 36 34 24 28 36 40 42 41 41 43 47 45 37
31 33 32 32 33 36 35 34 35 36 37 38 34 34 35 37 46 30 33 38 42 44 41 39 40 42 33
Wind_Direction
295 297 297 301 302 302 295 296 299 297 297 296 295 295 293 291 289 287 285 283 282 281 279 277 276 272 270
300 303 304 304 301 299 305 300 302 302 300 298 298 297 294 291 289 287 286 284 283 282 281 277 276 273 271
301 303 303 304 303 305 307 303 299 297 300 299 300 297 297 295 291 288 286 285 284 282 280 277 275 272 271
301 306 306 307 310 308 306 305 304 304 307 304 303 298 298 295 292 289 287 286 284 283 281 277 274 271 269
304 304 308 310 310 309 305 305 307 308 307 310 303 303 307 302 297 295 294 290 288 285 282 279 276 273 270
302 305 304 306 307 305 305 308 306 312 306 308 309 307 307 304 299 295 292 289 287 286 284 281 277 273 269
299 300 299 299 303 309 307 303 300 303 308 307 311 306 310 308 302 297 290 289 290 290 288 284 280 277 273
296 296 297 302 304 302 300 298 302 306 302 293 311 308 311 307 318 310 308 300 297 295 293 292 290 281 273
295 298 300 296 296 298 299 303 299 302 305 302 304 304 312 316 325 317 308 309 314 309 302 293 290 294 288
307 305 303 304 301 296 295 292 297 303 311 301 306 311 311 309 309 315 319 320 318 317 311 302 300 297 293
308 307 307 305 297 291 294 300 299 297 311 305 301 305 294 300 309 313 316 317 316 313 315 314 312 298 292
306 308 311 315 316 313 311 311 309 303 313 312 300 302 299 296 298 312 314 313 314 314 317 321 318 314 306
311 314 319 321 320 322 321 315 313 315 318 319 312 306 301 296 296 304 304 312 312 316 318 311 317 317 311
311 319 323 326 326 328 323 324 319 322 325 326 320 310 304 303 303 296 303 294 315 311 307 311 319 318 312
323 325 328 329 328 331 330 325 314 318 324 329 329 321 313 310 301 309 306 305 307 309 313 315 319 314 314
329 331 331 330 330 330 330 328 319 323 321 329 327 322 323 317 304 301 301 307 315 319 320 311 312 322 328
332 335 333 331 331 333 332 330 327 327 328 329 318 321 315 311 320 317 307 319 321 316 314 312 309 321 327